Flag for U.S.A. Weather past 2 weeks in Baton Rouge, Louisiana, U.S.A.

Now
58 °F

Sunny.


Feels Like: 55 °F
Forecast: 34 / 63 °F
Wind: 12 mph from East

Location: Baton Rouge Metropolitan - Ryan Field

Current Time: Feb 28, 2015 at 11:38:31 AM

Latest Report: Feb 28, 2015 at 10:53 AM


Visibility: 10 mi

Pressure: 30.37 "Hg

Humidity: 44%

Dew point: 36 °F

Location of Baton RougeLocation

Historic Weather in Baton Rouge — Graph

°F

Baton Rouge temperature yesterday

Maximum temperature yesterday: 52 °F (at 2:53 PM)
Minimum temperature yesterday: 35 °F (at 5:53 AM)
Average temperature yesterday: 42 °F

Past Weeks' High & Low Weather Summary

 TemperatureHumidityPressure
High76 °F (Feb 22, 12:53 PM)100% (Feb 15, 3:53 AM)30.49 "Hg (Feb 15, 3:53 AM)
Low29 °F (Feb 18, 2:53 AM)19% (Feb 13, 2:53 PM)29.73 "Hg (Feb 25, 3:53 PM)
Average48 °F74%30.16 "Hg
* Reported Feb 13 9:53 AM — Feb 28 9:53 AM, Baton Rouge, Weather by CustomWeather, © 2015

Note: Actual official high and low records may vary slightly from our data, if they occured in-between our weather recording intervals... More about our weather records

Advertising

Baton Rouge weather history for previous 24 hours

 ConditionsComfort  
Time TempWeatherWind HumidityBarometerVisibility
9:53 AM
Sat, Feb 28
50 °FScattered clouds.6 mph50%30.40 "Hg10 mi
8:53 AM46 °FSunny.12 mph51%30.40 "Hg10 mi
7:53 AM40 °FSunny.9 mph58%30.41 "Hg10 mi
6:53 AM35 °FOvercast.8 mph67%30.40 "Hg10 mi
5:53 AM34 °FClear.14 mph73%30.38 "Hg10 mi
4:53 AM34 °FPassing clouds.13 mph76%30.39 "Hg10 mi
3:53 AM33 °FClear.7 mph82%30.39 "Hg10 mi
2:53 AM33 °FClear.3 mph82%30.41 "Hg10 mi
1:53 AM34 °FClear.5 mph82%30.41 "Hg10 mi
12:53 AM35 °FClear.5 mph78%30.41 "Hg10 mi
11:53 PM
Fri, Feb 27
37 °FClear.6 mph73%30.42 "Hg10 mi
10:53 PM38 °FClear.7 mph73%30.43 "Hg10 mi
9:53 PM41 °FClear.6 mph67%30.43 "Hg10 mi
8:53 PM43 °FClear.5 mph60%30.42 "Hg10 mi
7:53 PM45 °FClear.8 mph58%30.38 "Hg10 mi
6:53 PM47 °FClear.7 mph54%30.34 "Hg10 mi
5:53 PM49 °FSunny.8 mph50%30.33 "Hg10 mi
4:53 PM52 °FSunny.9 mph47%30.32 "Hg10 mi
3:53 PM52 °FSunny.9 mph47%30.32 "Hg10 mi
2:53 PM52 °FSunny.8 mph49%30.32 "Hg10 mi
1:53 PM49 °FSunny.10 mph52%30.34 "Hg10 mi
12:53 PM48 °FSunny.8 mph56%30.36 "Hg10 mi
11:53 AM45 °FSunny.12 mph60%30.40 "Hg10 mi
Weather by CustomWeather, © 2015

See weather overviewHow to use our weather pages